Regional Weather Roundup
Issued by NWS

Home | Current Version | Previous Version | Graphics & Text | Print | Product List | Glossary On
Versions: 1 2 3 4 5 6 7 8 9 10 11 12 13 14 15 16 17 18 19 20 21 22 23 24 25 26 27 28 29 30 31 32 33 34 35 36 37 38 39 40 41 42 43 44 45 46 47 48 49 50
000
ASUS43 KLOT 260009
RWRIL

ILLINOIS REGIONAL WEATHER ROUNDUP
NATIONAL WEATHER SERVICE CHICAGO/ROMEOVILLE IL
700 PM CDT FRI MAY 25 2018

NOTE: "FAIR" INDICATES FEW OR NO CLOUDS BELOW 12,000 FEET WITH NO
SIGNIFICANT WEATHER AND/OR OBSTRUCTIONS TO VISIBILITY.

* THESE STATIONS ARE NOT UNDER NWS QUALITY CONTROL. THEY ALSO MAY NOT
  REPORT WEATHER SUCH AS PRECIPITATION OR FOG.

ILZ001-002-007-009-015-016-024-260100-
NORTHWEST ILLINOIS

CITY           SKY/WX    TMP DP  RH WIND       PRES   REMARKS
MOLINE         FAIR      80  67  64 S3        29.76F HX  82
6HR MIN TEMP:  73; 6HR MAX TEMP:  85; 6HR PCP:  0.40;

STERLING*        N/A    N/A N/A N/A MISG        N/A
SAVANNA*       FAIR      78  64  62 S12       29.77S HX  80
$$

ILZ003-004-008-010-011-017-018-260100-
NORTH CENTRAL ILLINOIS

CITY           SKY/WX    TMP DP  RH WIND       PRES   REMARKS
ROCKFORD       PTSUNNY   75  66  73 W3        29.78S
6HR MIN TEMP:  72; 6HR MAX TEMP:  88; 6HR PCP: TRACE;

FREEPORT*      FAIR      75  65  70 S7        29.79S
ROCHELLE*      FAIR      80  60  50 SW13      29.79R HX  81
DE KALB*       FAIR      77  66  68 S8        29.80R
PERU*          FAIR      78  68  72 SE3       29.79F HX  80
$$

ILZ005-006-012>014-019>023-260100-
NORTHEAST ILLINOIS

CITY           SKY/WX    TMP DP  RH WIND       PRES   REMARKS
CHICAGO-OHARE  CLOUDY    82  64  54 W12       29.75S HX  83
6HR MIN TEMP:  82; 6HR MAX TEMP:  89;

CHICAGO-MIDWAY CLOUDY    83  64  52 W7        29.76S HX  84
6HR MIN TEMP:  83; 6HR MAX TEMP:  90;

AURORA         FAIR      78  66  66 SW9       29.78S HX  80
6HR MIN TEMP:  78; 6HR MAX TEMP:  89;

LANSING*       CLOUDY    81  65  58 CALM      29.77S HX  83
JOLIET*        FAIR      79  66  63 CALM      29.79S HX  81
WAUKEGAN       FAIR      76  58  53 S8        29.75S
6HR MIN TEMP:  76; 6HR MAX TEMP:  87;

DUPAGE AIRPORT FAIR      79  66  64 SW6       29.77S HX  81
6HR MIN TEMP:  79; 6HR MAX TEMP:  89;

KANKAKEE*      FAIR      76  64  64 W9        29.79F
WHEELING       FAIR      83  65  54 SW7       29.77S HX  85
6HR MIN TEMP:  83; 6HR MAX TEMP:  89;

MORRIS*        FAIR      78  65  64 W8        29.78S HX  80
ROMEOVILLE*    FAIR      77  64  63 W9        29.79S
NORTHERLY ISL    N/A     68  56  65 S5          N/A
$$

LMZ740>746-260100-
SOUTHERN LAKE MICHIGAN

STATION/POSITION SKY/WX   TEMP    WIND        PRES    VSBY  WAVE
                          AIR SEA DIR/SP/G                  HT/PER
                          (F)     (DEG/KT/KT) (MB)    (MI)  (FT/S)
SOUTHERN BUOY              53 39  130/ 10/ 10 1007.7F         0
WILMETTE HARBOR            63 57  200/ 10/ 17   N/A           1
HARRISON CRIB              66     190/  6/  8   N/A
BURNHAM HARBOR             68     170/  5/  5   N/A
CALUMET HARBOR             72     110/  9/ 13 1007.6F
BURNS HARBOR               71      80/ 10/ 16 1008.8F
MICHIGAN CITY              80      50/ 12/ 13   N/A
MICHIGAN CITY 6N           68 62  100/  8/ 10   N/A           0
ST. JOSEPH                 74 65  100/  4/  6 1007.8          0
$$

ILZ025>027-034>036-040-047-049-050-058-095>099-260100-
WEST-CENTRAL ILLINOIS

CITY           SKY/WX    TMP DP  RH WIND       PRES   REMARKS
QUINCY         CLOUDY    80  62  54 CALM      29.79F HX  81
GALESBURG*     FAIR      76  69  78 E8        29.80S
MACOMB*        CLOUDY    72  66  80 S6        29.82S
JACKSONVILLE*  CLOUDY    73  70  91 NE7       29.80F
PITTSFIELD*    CLOUDY    76  72  87 CALM      29.82R
$$

ILZ028>032-037-038-041>044-048-051>054-059>061-260100-
CENTRAL ILLINOIS

CITY           SKY/WX    TMP DP  RH WIND       PRES   REMARKS
PONTIAC        FAIR      75  73  95 CALM      29.78F
BLOOMINGTON    TSTM      72  69  90 NW15      29.83R
DECATUR        CLOUDY    73  68  84 NW15G25   29.81R
PEORIA         LGT RAIN  71  69  93 S8        29.81F
6HR MIN TEMP:  71; 6HR MAX TEMP:  88; 6HR PCP:  0.25;

LACON*         FAIR      73  70  91 S6        29.79S
LINCOLN*       RAIN      71  71 100 CALM      29.84R
SPRINGFIELD    LGT RAIN  71  70  96 NE10      29.82F FOG
6HR MIN TEMP:  70; 6HR MAX TEMP:  91; 6HR PCP:  0.26;

TAYLORVILLE    FAIR      74  69  84 NW15      29.82R
6HR MIN TEMP:  73; 6HR MAX TEMP:  88;

$$

ILZ033-039-045-046-055>057-062-063-260100-
EAST-CENTRAL ILLINOIS

CITY           SKY/WX    TMP DP  RH WIND       PRES   REMARKS
CHAMPAIGN      PTSUNNY   86  59  39 S16       29.79F HX  85
DANVILLE*      FAIR      85  57  38 S9        29.78F HX  84
RANTOUL*       PTSUNNY   87  56  34 S9        29.79S HX  86
MATTOON        PTSUNNY   75  71  87 SW10G22   29.82R THUNDER
PARIS*         FAIR      85  57  38 S10       29.82S HX  84
$$

ILZ079-100>102-260100-
SOUTHWEST ILLINOIS

CITY           SKY/WX    TMP DP  RH WIND       PRES   REMARKS
ALTON          PTSUNNY   81  66  61 SW14      29.80F HX  83
BELLEVILLE     CLOUDY    78  70  76 S10       29.80F HX  81
CAHOKIA*       PTSUNNY   81  64  56 S7        29.80F HX  82
SPARTA*        PTSUNNY   76  70  82 S9        29.85F
$$

ILZ064>066-069>071-074>076-080>082-084>086-088>090-092>094-260100-
SOUTH-CENTRAL ILLINOIS

CITY           SKY/WX    TMP DP  RH WIND       PRES   REMARKS
CARBONDALE     FAIR      71  67  87 S7        29.84F
6HR MIN TEMP:  70; 6HR MAX TEMP:  88; 6HR PCP:  0.07;

CAIRO*         FAIR      72  68  85 S8        29.87S
EFFINGHAM*     FAIR      75  71  89 SE5       29.84S
MARION         PTSUNNY   70  68  94 S7        29.86F
MT. VERNON     FAIR      72  69  90 S8        29.83F
CENTRALIA*     CLOUDY    74  69  85 S10       29.81F
SALEM*         FAIR      75  67  77 S12       29.82F
METROPOLIS*    LGT RAIN  70  69  94 CALM      29.87F
$$

ILZ067-068-072-073-078-083-087-091-260100-
SOUTHEAST ILLINOIS

CITY           SKY/WX    TMP DP  RH WIND       PRES   REMARKS
LAWRENCEVILLE  FAIR      83  66  56 SW16      29.84S HX  85
FLORA*         LGT RAIN  71  68  90 S8        29.84F
FAIRFIELD*     LGT RAIN  70  69  96 S3        29.82F
HARRISBURG*    LGT RAIN  72  69  92 S6        29.85F
ROBINSON*      FAIR      81  67  63 SW15G22   29.84S HX  83
CARMI*         LGT RAIN  75  68  77 S6        29.84F
$$

ABBREVIATIONS USED IN REMARKS
   TC - TEMPERATURE IN CELSIUS
  WCI - WIND CHILL INDEX
   HX - HEAT INDEX
  VSB - VISIBILITY
$$





USA.gov is the U.S. government's official web portal to all federal, state and local government web resources and services.